User: anonymous   Login
Location: Trois-Rivi�res
(46.3500°N, 72.5500°W)
Time: 02:53:48
(UTC-05:00)
Language:

N. Korean satellite - Orbit

View from above orbital plane
View from above orbital plane
View from above satellite
View from above satellite

Ground track
Ground track

The orbit data is extracted from the following two-line orbital elements,

1 39026U 12072A   18022.96080307 +.00001266 +00000-0 +50385-4 0  9998
2 39026 097.2148 038.2806 0041293 117.2602 243.2853 15.26299137283441
Epoch (UTC): 22 January 2018 23:03:33
Eccentricity: 0.0041293
inclination: 97.2148°
perigee height: 458 km
apogee height: 515 km
right ascension of ascending node: 38.2806°
argument of perigee: 117.2602°
revolutions per day: 15.26299137
mean anomaly at epoch: 243.2853°
orbit number at epoch: 28344

The dashed part of the orbit path shows where the satellite is in the earth's shadow,  

DLR